TimeEST,TemperatureF,Dew PointF,Humidity,Sea Level PressureIn,VisibilityMPH,Wind Direction,Wind SpeedMPH,Gust SpeedMPH,PrecipitationIn,Events,Conditions,WindDirDegrees,DateUTC
12:53 AM,33.1,25.0,72,30.05,6.0,NW,12.7,-,N/A,,Haze,310,2013-02-06 05:53:00
1:42 AM,32.0,24.8,75,30.05,6.0,NW,11.5,-,N/A,,Haze,310,2013-02-06 06:42:00
1:53 AM,32.0,25.0,75,30.07,6.0,NW,9.2,-,N/A,,Haze,320,2013-02-06 06:53:00
2:53 AM,30.9,23.0,72,30.10,7.0,North,13.8,-,N/A,,Overcast,350,2013-02-06 07:53:00
3:53 AM,30.0,21.0,69,30.12,10.0,NNW,8.1,-,N/A,,Overcast,330,2013-02-06 08:53:00
4:53 AM,30.0,21.0,69,30.14,9.0,NNW,6.9,-,N/A,,Overcast,330,2013-02-06 09:53:00
5:53 AM,30.0,19.9,66,30.17,10.0,NW,4.6,-,N/A,,Overcast,320,2013-02-06 10:53:00
6:53 AM,30.0,19.0,64,30.20,10.0,NNW,3.5,-,N/A,,Overcast,330,2013-02-06 11:53:00
7:53 AM,30.0,19.0,64,30.22,9.0,Calm,Calm,-,N/A,,Overcast,0,2013-02-06 12:53:00
8:00 AM,30.2,19.4,64,30.21,8.0,Calm,Calm,-,N/A,,Overcast,0,2013-02-06 13:00:00
8:53 AM,30.9,19.9,64,30.23,8.0,Calm,Calm,-,N/A,,Overcast,0,2013-02-06 13:53:00
9:53 AM,30.9,18.0,59,30.24,10.0,Calm,Calm,-,N/A,,Mostly Cloudy,0,2013-02-06 14:53:00
10:07 AM,32.0,17.6,55,30.22,10.0,Calm,Calm,-,N/A,,Overcast,0,2013-02-06 15:07:00
10:43 AM,33.8,19.4,56,30.22,10.0,Calm,Calm,-,N/A,,Partly Cloudy,0,2013-02-06 15:43:00
10:53 AM,33.1,19.0,56,30.25,10.0,Calm,Calm,-,N/A,,Partly Cloudy,0,2013-02-06 15:53:00
11:53 AM,34.0,19.9,56,30.27,10.0,ESE,3.5,-,N/A,,Clear,120,2013-02-06 16:53:00
12:53 PM,35.1,19.9,54,30.25,10.0,SSE,4.6,-,N/A,,Clear,160,2013-02-06 17:53:00
1:53 PM,36.0,19.9,52,30.25,10.0,Calm,Calm,-,N/A,,Clear,0,2013-02-06 18:53:00
2:53 PM,37.0,21.0,52,30.24,10.0,South,6.9,-,N/A,,Clear,190,2013-02-06 19:53:00
3:53 PM,37.0,21.0,52,30.24,9.0,SSE,9.2,-,N/A,,Clear,150,2013-02-06 20:53:00
4:53 PM,36.0,21.9,57,30.26,9.0,SSW,8.1,-,N/A,,Scattered Clouds,200,2013-02-06 21:53:00
5:53 PM,34.0,21.9,61,30.25,8.0,South,3.5,-,N/A,,Clear,170,2013-02-06 22:53:00
6:53 PM,33.1,21.9,64,30.24,9.0,South,5.8,-,N/A,,Clear,170,2013-02-06 23:53:00
7:53 PM,32.0,21.9,66,30.24,8.0,SSE,4.6,-,N/A,,Clear,150,2013-02-07 00:53:00
8:53 PM,32.0,21.9,66,30.22,8.0,SSE,6.9,-,N/A,,Clear,150,2013-02-07 01:53:00
9:53 PM,30.9,21.9,69,30.22,7.0,South,4.6,-,N/A,,Clear,170,2013-02-07 02:53:00
10:53 PM,30.0,21.9,72,30.22,7.0,Calm,Calm,-,N/A,,Clear,0,2013-02-07 03:53:00
11:53 PM,30.9,23.0,72,30.20,7.0,South,6.9,-,N/A,,Partly Cloudy,170,2013-02-07 04:53:00